Time,TemperatureF,DewpointF,PressureIn,WindDirection,WindDirectionDegrees,WindSpeedMPH,WindSpeedGustMPH,Humidity,HourlyPrecipIn,Conditions,Clouds,dailyrainin,SoftwareType,DateUTC
2013-03-28 00:03:00,31.0,28.0,-100.00,West,268,4.0,19.0,88,0.00,,,-99.99,,2013-03-28 04:03:00,
2013-03-28 00:12:00,30.0,28.0,-100.00,West,272,5.0,19.0,88,0.00,,,-99.99,,2013-03-28 04:12:00,
2013-03-28 00:23:00,30.0,27.0,-100.00,West,269,4.0,19.0,86,0.00,,,-99.99,,2013-03-28 04:23:00,
2013-03-28 00:32:00,30.0,27.0,-100.00,West,268,4.0,19.0,85,0.00,,,-99.99,,2013-03-28 04:32:00,
2013-03-28 00:42:00,30.0,27.0,-100.00,West,265,4.0,19.0,86,0.00,,,-99.99,,2013-03-28 04:42:00,
2013-03-28 00:52:00,31.0,27.0,-100.00,West,272,3.0,19.0,85,0.00,,,-99.99,,2013-03-28 04:52:00,
2013-03-28 01:02:00,29.0,25.0,-100.00,West,271,4.0,19.0,85,0.00,,,-99.99,,2013-03-28 05:02:00,
2013-03-28 01:12:00,29.0,27.0,-100.00,West,271,4.0,19.0,84,0.00,,,-99.99,,2013-03-28 05:12:00,
2013-03-28 01:22:00,32.0,27.0,-100.00,WNW,288,4.0,19.0,78,0.00,,,-99.99,,2013-03-28 05:22:00,
2013-03-28 01:32:00,32.0,27.0,-100.00,West,278,4.0,19.0,75,0.00,,,-99.99,,2013-03-28 05:32:00,
2013-03-28 01:42:00,31.0,25.0,-100.00,WSW,258,4.0,19.0,72,0.00,,,-99.99,,2013-03-28 05:42:00,
2013-03-28 01:52:00,31.0,25.0,-100.00,West,271,4.0,19.0,73,0.00,,,-99.99,,2013-03-28 05:52:00,
2013-03-28 02:02:00,32.0,25.0,-100.00,West,268,4.0,19.0,71,0.00,,,-99.99,,2013-03-28 06:02:00,
2013-03-28 02:12:00,31.0,23.0,-100.00,West,279,4.0,19.0,71,0.00,,,-99.99,,2013-03-28 06:12:00,
2013-03-28 02:22:00,33.0,25.0,-100.00,West,273,6.0,19.0,69,0.00,,,-99.99,,2013-03-28 06:22:00,
2013-03-28 02:32:00,30.0,25.0,-100.00,WSW,252,4.0,19.0,77,0.00,,,-99.99,,2013-03-28 06:32:00,
2013-03-28 02:42:00,30.0,25.0,-100.00,SW,225,3.0,19.0,77,0.00,,,-99.99,,2013-03-28 06:42:00,
2013-03-28 02:52:00,28.0,23.0,-100.00,WSW,248,1.0,19.0,81,0.00,,,-99.99,,2013-03-28 06:52:00,
2013-03-28 03:02:00,27.0,23.0,-100.00,WSW,248,2.0,19.0,84,0.00,,,-99.99,,2013-03-28 07:02:00,
2013-03-28 03:13:00,28.0,25.0,-100.00,WSW,251,2.0,19.0,85,0.00,,,-99.99,,2013-03-28 07:13:00,
2013-03-28 03:22:00,27.0,25.0,-100.00,WSW,249,2.0,19.0,85,0.00,,,-99.99,,2013-03-28 07:22:00,
2013-03-28 03:32:00,27.0,25.0,-100.00,WSW,258,2.0,19.0,85,0.00,,,-99.99,,2013-03-28 07:32:00,
2013-03-28 03:42:00,27.0,23.0,-100.00,West,259,2.0,19.0,84,0.00,,,-99.99,,2013-03-28 07:42:00,
2013-03-28 03:52:00,28.0,25.0,-100.00,WSW,245,2.0,19.0,85,0.00,,,-99.99,,2013-03-28 07:52:00,
2013-03-28 04:02:00,28.0,25.0,-100.00,WSW,252,3.0,19.0,86,0.00,,,-99.99,,2013-03-28 08:02:00,
2013-03-28 04:12:00,28.0,25.0,-100.00,WSW,254,2.0,19.0,86,0.00,,,-99.99,,2013-03-28 08:12:00,
2013-03-28 04:22:00,28.0,25.0,-100.00,WSW,248,4.0,19.0,85,0.00,,,-99.99,,2013-03-28 08:22:00,
2013-03-28 04:33:00,28.0,25.0,-100.00,WSW,244,3.0,19.0,84,0.00,,,-99.99,,2013-03-28 08:33:00,
2013-03-28 04:42:00,27.0,25.0,-100.00,WSW,241,3.0,19.0,85,0.00,,,-99.99,,2013-03-28 08:42:00,
2013-03-28 04:52:00,28.0,25.0,-100.00,WSW,245,3.0,19.0,85,0.00,,,-99.99,,2013-03-28 08:52:00,
2013-03-28 05:02:00,29.0,27.0,-100.00,WSW,254,2.0,19.0,86,0.00,,,-99.99,,2013-03-28 09:02:00,
2013-03-28 05:12:00,28.0,25.0,-100.00,WSW,247,3.0,19.0,84,0.00,,,-99.99,,2013-03-28 09:12:00,
2013-03-28 05:22:00,27.0,25.0,-100.00,WSW,251,2.0,19.0,85,0.00,,,-99.99,,2013-03-28 09:22:00,
2013-03-28 05:32:00,27.0,23.0,-100.00,WSW,255,2.0,19.0,85,0.00,,,-99.99,,2013-03-28 09:32:00,
2013-03-28 05:42:00,28.0,23.0,-100.00,West,264,3.0,19.0,82,0.00,,,-99.99,,2013-03-28 09:42:00,
2013-03-28 05:52:00,26.0,23.0,-100.00,WSW,252,4.0,19.0,82,0.00,,,-99.99,,2013-03-28 09:52:00,
2013-03-28 06:03:00,26.0,23.0,-100.00,WSW,258,3.0,19.0,84,0.00,,,-99.99,,2013-03-28 10:03:00,
2013-03-28 06:12:00,26.0,23.0,-100.00,WSW,249,3.0,19.0,82,0.00,,,-99.99,,2013-03-28 10:12:00,
2013-03-28 06:22:00,26.0,23.0,-100.00,West,262,4.0,19.0,82,0.00,,,-99.99,,2013-03-28 10:22:00,
2013-03-28 06:33:00,26.0,23.0,-100.00,West,259,4.0,19.0,84,0.00,,,-99.99,,2013-03-28 10:33:00,
2013-03-28 06:43:00,28.0,25.0,-100.00,West,259,4.0,19.0,82,0.00,,,-99.99,,2013-03-28 10:43:00,
2013-03-28 06:52:00,28.0,25.0,-100.00,West,264,4.0,19.0,82,0.00,,,-99.99,,2013-03-28 10:52:00,
2013-03-28 07:02:00,27.0,23.0,-100.00,West,268,5.0,19.0,81,0.00,,,-99.99,,2013-03-28 11:02:00,
2013-03-28 07:12:00,26.0,23.0,-100.00,West,259,4.0,19.0,82,0.00,,,-99.99,,2013-03-28 11:12:00,
2013-03-28 07:23:00,26.0,23.0,-100.00,West,264,4.0,19.0,84,0.00,,,-99.99,,2013-03-28 11:23:00,
2013-03-28 07:32:00,26.0,23.0,-100.00,WSW,256,4.0,19.0,82,0.00,,,-99.99,,2013-03-28 11:32:00,
2013-03-28 07:43:00,27.0,23.0,-100.00,West,272,4.0,19.0,82,0.00,,,-99.99,,2013-03-28 11:43:00,
2013-03-28 07:52:00,27.0,23.0,-100.00,West,275,3.0,19.0,81,0.00,,,-99.99,,2013-03-28 11:52:00,
2013-03-28 08:02:00,27.0,23.0,-100.00,WNW,283,3.0,19.0,80,0.00,,,-99.99,,2013-03-28 12:02:00,
2013-03-28 08:12:00,28.0,23.0,-100.00,WNW,282,4.0,19.0,78,0.00,,,-99.99,,2013-03-28 12:12:00,
2013-03-28 08:22:00,27.0,23.0,-100.00,WSW,244,3.0,19.0,81,0.00,,,-99.99,,2013-03-28 12:22:00,
2013-03-28 08:32:00,31.0,27.0,-100.00,WSW,245,4.0,19.0,78,0.00,,,-99.99,,2013-03-28 12:32:00,
2013-03-28 08:42:00,30.0,25.0,-100.00,West,272,5.0,19.0,78,0.00,,,-99.99,,2013-03-28 12:42:00,
2013-03-28 08:52:00,28.0,23.0,-100.00,WSW,254,3.0,19.0,78,0.00,,,-99.99,,2013-03-28 12:52:00,
2013-03-28 09:02:00,32.0,27.0,-100.00,West,264,4.0,19.0,77,0.00,,,-99.99,,2013-03-28 13:02:00,
2013-03-28 09:12:00,31.0,25.0,-100.00,West,261,6.0,19.0,73,0.00,,,-99.99,,2013-03-28 13:12:00,
2013-03-28 09:22:00,33.0,27.0,-100.00,West,272,4.0,19.0,75,0.00,,,-99.99,,2013-03-28 13:22:00,
2013-03-28 09:32:00,34.0,25.0,-100.00,WNW,289,5.0,19.0,68,0.00,,,-99.99,,2013-03-28 13:32:00,
2013-03-28 09:42:00,34.0,27.0,-100.00,WNW,285,6.0,19.0,68,0.00,,,-99.99,,2013-03-28 13:42:00,
2013-03-28 09:52:00,35.0,25.0,-100.00,WNW,282,7.0,19.0,64,0.00,,,-99.99,,2013-03-28 13:52:00,
2013-03-28 10:02:00,37.0,27.0,-100.00,WNW,283,8.0,19.0,64,0.00,,,-99.99,,2013-03-28 14:02:00,
2013-03-28 10:12:00,37.0,27.0,-100.00,WNW,286,7.0,19.0,62,0.00,,,-99.99,,2013-03-28 14:12:00,
2013-03-28 10:22:00,36.0,25.0,-100.00,West,279,7.0,19.0,63,0.00,,,-99.99,,2013-03-28 14:22:00,
2013-03-28 10:33:00,38.0,27.0,-100.00,WNW,282,7.0,19.0,63,0.00,,,-99.99,,2013-03-28 14:33:00,
2013-03-28 10:42:00,38.0,25.0,-100.00,NW,307,8.0,19.0,59,0.00,,,-99.99,,2013-03-28 14:42:00,
2013-03-28 10:52:00,38.0,25.0,-100.00,WNW,300,9.0,19.0,56,0.00,,,-99.99,,2013-03-28 14:52:00,
2013-03-28 11:02:00,40.0,27.0,-100.00,West,268,9.0,19.0,56,0.00,,,-99.99,,2013-03-28 15:02:00,
2013-03-28 11:12:00,40.0,27.0,-100.00,WNW,286,8.0,19.0,54,0.00,,,-99.99,,2013-03-28 15:12:00,
2013-03-28 11:22:00,40.0,27.0,-100.00,West,271,8.0,19.0,55,0.00,,,-99.99,,2013-03-28 15:22:00,
2013-03-28 11:33:00,42.0,27.0,-100.00,West,280,8.0,19.0,54,0.00,,,-99.99,,2013-03-28 15:33:00,
2013-03-28 11:43:00,41.0,27.0,-100.00,WNW,286,8.0,19.0,53,0.00,,,-99.99,,2013-03-28 15:43:00,
2013-03-28 11:52:00,42.0,27.0,-100.00,WNW,302,6.0,19.0,53,0.00,,,-99.99,,2013-03-28 15:52:00,
2013-03-28 12:03:00,43.0,27.0,-100.00,WNW,288,7.0,19.0,51,0.00,,,-99.99,,2013-03-28 16:03:00,
2013-03-28 12:12:00,42.0,27.0,-100.00,NW,307,6.0,6.0,51,0.00,,,-99.99,,2013-03-28 16:12:00,
2013-03-28 12:23:00,44.0,27.0,-100.00,West,275,8.0,14.0,50,0.00,,,-99.99,,2013-03-28 16:23:00,
2013-03-28 12:32:00,44.0,27.0,-100.00,WNW,288,9.0,14.0,49,0.00,,,-99.99,,2013-03-28 16:32:00,
2013-03-28 12:42:00,44.0,25.0,-100.00,WNW,297,8.0,14.0,46,0.00,,,-99.99,,2013-03-28 16:42:00,
2013-03-28 12:52:00,45.0,28.0,-100.00,West,265,8.0,14.0,49,0.00,,,-99.99,,2013-03-28 16:52:00,
2013-03-28 13:02:00,45.0,25.0,-100.00,WNW,288,7.0,14.0,44,0.00,,,-99.99,,2013-03-28 17:02:00,
2013-03-28 13:12:00,44.0,25.0,-100.00,West,278,8.0,14.0,45,0.00,,,-99.99,,2013-03-28 17:12:00,
2013-03-28 13:22:00,46.0,27.0,-100.00,West,279,9.0,14.0,44,0.00,,,-99.99,,2013-03-28 17:22:00,
2013-03-28 13:32:00,46.0,25.0,-100.00,West,261,9.0,14.0,42,0.00,,,-99.99,,2013-03-28 17:32:00,
2013-03-28 13:42:00,46.0,27.0,-100.00,NW,312,8.0,14.0,45,0.00,,,-99.99,,2013-03-28 17:42:00,
2013-03-28 13:52:00,46.0,25.0,-100.00,WNW,285,7.0,14.0,41,0.00,,,-99.99,,2013-03-28 17:52:00,
2013-03-28 14:02:00,48.0,28.0,-100.00,WNW,295,7.0,14.0,45,0.00,,,-99.99,,2013-03-28 18:02:00,
2013-03-28 14:12:00,47.0,27.0,-100.00,WNW,285,8.0,14.0,44,0.00,,,-99.99,,2013-03-28 18:12:00,
2013-03-28 14:22:00,48.0,25.0,-100.00,WNW,300,7.0,14.0,40,0.00,,,-99.99,,2013-03-28 18:22:00,
2013-03-28 14:32:00,48.0,27.0,-100.00,West,269,11.0,14.0,42,0.00,,,-99.99,,2013-03-28 18:32:00,
2013-03-28 14:42:00,48.0,28.0,-100.00,West,271,9.0,14.0,44,0.00,,,-99.99,,2013-03-28 18:42:00,
2013-03-28 14:52:00,48.0,27.0,-100.00,WNW,290,9.0,14.0,42,0.00,,,-99.99,,2013-03-28 18:52:00,
2013-03-28 15:02:00,49.0,27.0,-100.00,WSW,249,7.0,14.0,41,0.00,,,-99.99,,2013-03-28 19:02:00,
2013-03-28 15:12:00,47.0,28.0,-100.00,West,280,7.0,14.0,47,0.00,,,-99.99,,2013-03-28 19:12:00,
2013-03-28 15:22:00,49.0,25.0,-100.00,West,276,8.0,14.0,38,0.00,,,-99.99,,2013-03-28 19:22:00,
2013-03-28 15:33:00,50.0,28.0,-100.00,West,272,12.0,17.0,41,0.00,,,-99.99,,2013-03-28 19:33:00,
2013-03-28 15:42:00,50.0,28.0,-100.00,West,278,9.0,17.0,41,0.00,,,-99.99,,2013-03-28 19:42:00,
2013-03-28 15:52:00,51.0,32.0,-100.00,WSW,240,11.0,17.0,47,0.00,,,-99.99,,2013-03-28 19:52:00,
2013-03-28 16:03:00,49.0,30.0,-100.00,West,271,10.0,17.0,46,0.00,,,-99.99,,2013-03-28 20:03:00,
2013-03-28 16:12:00,48.0,28.0,-100.00,WSW,249,11.0,17.0,45,0.00,,,-99.99,,2013-03-28 20:12:00,
2013-03-28 16:22:00,48.0,28.0,-100.00,WSW,241,9.0,17.0,46,0.00,,,-99.99,,2013-03-28 20:22:00,
2013-03-28 16:32:00,49.0,30.0,-100.00,WSW,255,12.0,17.0,45,0.00,,,-99.99,,2013-03-28 20:32:00,
2013-03-28 16:42:00,49.0,30.0,-100.00,WSW,247,14.0,17.0,47,0.00,,,-99.99,,2013-03-28 20:42:00,
2013-03-28 16:52:00,47.0,32.0,-100.00,SW,216,12.0,17.0,56,0.00,,,-99.99,,2013-03-28 20:52:00,
2013-03-28 17:02:00,47.0,32.0,-100.00,WSW,249,14.0,17.0,54,0.00,,,-99.99,,2013-03-28 21:02:00,
2013-03-28 17:12:00,48.0,30.0,-100.00,West,266,12.0,17.0,50,0.00,,,-99.99,,2013-03-28 21:12:00,
2013-03-28 17:22:00,47.0,30.0,-100.00,SW,234,14.0,17.0,50,0.00,,,-99.99,,2013-03-28 21:22:00,
2013-03-28 17:33:00,48.0,30.0,-100.00,WSW,256,12.0,17.0,49,0.00,,,-99.99,,2013-03-28 21:33:00,
2013-03-28 17:43:00,49.0,32.0,-100.00,WSW,249,12.0,17.0,49,0.00,,,-99.99,,2013-03-28 21:43:00,
2013-03-28 17:53:00,47.0,30.0,-100.00,WSW,248,11.0,17.0,49,0.00,,,-99.99,,2013-03-28 21:53:00,
2013-03-28 18:03:00,48.0,28.0,-100.00,West,266,13.0,17.0,46,0.00,,,-99.99,,2013-03-28 22:03:00,
2013-03-28 18:13:00,46.0,28.0,-100.00,West,271,12.0,17.0,47,0.00,,,-99.99,,2013-03-28 22:13:00,
2013-03-28 18:22:00,48.0,32.0,-100.00,WSW,241,11.0,17.0,53,0.00,,,-99.99,,2013-03-28 22:22:00,
2013-03-28 18:32:00,48.0,30.0,-100.00,WSW,248,11.0,17.0,50,0.00,,,-99.99,,2013-03-28 22:32:00,
2013-03-28 18:42:00,48.0,32.0,-100.00,West,264,12.0,17.0,53,0.00,,,-99.99,,2013-03-28 22:42:00,
2013-03-28 18:52:00,47.0,30.0,-100.00,SW,234,9.0,17.0,51,0.00,,,-99.99,,2013-03-28 22:52:00,
2013-03-28 19:03:00,47.0,32.0,-100.00,SW,231,11.0,17.0,55,0.00,,,-99.99,,2013-03-28 23:03:00,
2013-03-28 19:12:00,47.0,32.0,-100.00,SW,227,13.0,17.0,54,0.00,,,-99.99,,2013-03-28 23:12:00,
2013-03-28 19:22:00,46.0,32.0,-100.00,WSW,240,12.0,17.0,58,0.00,,,-99.99,,2013-03-28 23:22:00,
2013-03-28 19:32:00,45.0,32.0,-100.00,SW,235,11.0,17.0,56,0.00,,,-99.99,,2013-03-28 23:32:00,
2013-03-28 19:42:00,45.0,32.0,-100.00,SW,223,11.0,17.0,59,0.00,,,-99.99,,2013-03-28 23:42:00,
2013-03-28 19:52:00,45.0,32.0,-100.00,SW,224,9.0,17.0,59,0.00,,,-99.99,,2013-03-28 23:52:00,
2013-03-28 20:02:00,43.0,30.0,-100.00,WSW,245,10.0,17.0,59,0.00,,,-99.99,,2013-03-29 00:02:00,
2013-03-28 20:12:00,43.0,32.0,-100.00,SW,230,8.0,17.0,63,0.00,,,-99.99,,2013-03-29 00:12:00,
2013-03-28 20:22:00,42.0,32.0,-100.00,SW,220,9.0,17.0,66,0.00,,,-99.99,,2013-03-29 00:22:00,
2013-03-28 20:32:00,41.0,32.0,-100.00,WSW,241,8.0,17.0,66,0.00,,,-99.99,,2013-03-29 00:32:00,
2013-03-28 20:42:00,41.0,32.0,-100.00,SW,214,9.0,17.0,66,0.00,,,-99.99,,2013-03-29 00:42:00,
2013-03-28 20:52:00,43.0,32.0,-100.00,SW,228,7.0,17.0,68,0.00,,,-99.99,,2013-03-29 00:52:00,
2013-03-28 21:02:00,40.0,30.0,-100.00,WSW,242,7.0,17.0,67,0.00,,,-99.99,,2013-03-29 01:02:00,
2013-03-28 21:12:00,39.0,32.0,-100.00,SW,225,6.0,17.0,71,0.00,,,-99.99,,2013-03-29 01:12:00,
2013-03-28 21:22:00,38.0,30.0,-100.00,SW,231,5.0,17.0,73,0.00,,,-99.99,,2013-03-29 01:22:00,
2013-03-28 21:33:00,38.0,30.0,-100.00,SW,217,6.0,17.0,73,0.00,,,-99.99,,2013-03-29 01:33:00,
2013-03-28 21:42:00,38.0,30.0,-100.00,SW,223,6.0,17.0,73,0.00,,,-99.99,,2013-03-29 01:42:00,
2013-03-28 21:52:00,40.0,32.0,-100.00,SSW,210,6.0,17.0,75,0.00,,,-99.99,,2013-03-29 01:52:00,
2013-03-28 22:02:00,36.0,28.0,-100.00,SW,230,6.0,17.0,73,0.00,,,-99.99,,2013-03-29 02:02:00,
2013-03-28 22:12:00,37.0,30.0,-100.00,SSW,213,5.0,17.0,76,0.00,,,-99.99,,2013-03-29 02:12:00,
2013-03-28 22:22:00,37.0,30.0,-100.00,SW,223,6.0,17.0,76,0.00,,,-99.99,,2013-03-29 02:22:00,
2013-03-28 22:32:00,38.0,32.0,-100.00,SW,214,6.0,17.0,76,0.00,,,-99.99,,2013-03-29 02:32:00,
2013-03-28 22:42:00,34.0,28.0,-100.00,SW,221,5.0,17.0,78,0.00,,,-99.99,,2013-03-29 02:42:00,
2013-03-28 22:52:00,36.0,30.0,-100.00,SW,227,4.0,17.0,75,0.00,,,-99.99,,2013-03-29 02:52:00,
2013-03-28 23:02:00,35.0,28.0,-100.00,SW,228,4.0,17.0,77,0.00,,,-99.99,,2013-03-29 03:02:00,
2013-03-28 23:12:00,34.0,30.0,-100.00,SW,223,4.0,17.0,80,0.00,,,-99.99,,2013-03-29 03:12:00,
2013-03-28 23:22:00,33.0,28.0,-100.00,SW,235,4.0,17.0,81,0.00,,,-99.99,,2013-03-29 03:22:00,
2013-03-28 23:32:00,30.0,27.0,-100.00,SW,235,4.0,17.0,84,0.00,,,-99.99,,2013-03-29 03:32:00,
2013-03-28 23:43:00,33.0,28.0,-100.00,WSW,241,4.0,17.0,80,0.00,,,-99.99,,2013-03-29 03:43:00,
2013-03-28 23:53:00,35.0,30.0,-100.00,WSW,244,5.0,17.0,77,0.00,,,-99.99,,2013-03-29 03:53:00,